Погода в Закобякино

Россия / Ярославская область     58°06′15″N   40°43′30″E
темп.,
°C
ветер,
м/с
пор.,
м/с
влажн.,
%
обл.,
%
осадки,
мм/ч
давл.,
гПа
погр.,
м
6 марта, сб
сб600:00−14зсз229343 0.0 101225
03:00−15з239670 0.1 101452
06:00−17сз229752 0.0 101322
09:00−14з139241 0.0 1014136
12:00−9зсз238395 0.0 1014598
15:00−8зсз358198 0.1 1013919
18:00−11зюз239199 0.1 101224
21:00−14юз239557 0.1 101147
7 марта, вс
вс700:00−15ююз36960 0.0 1008111
03:00−13ю4119330 0.0 1005266
06:00−11ю51388100 0.0 1000516
09:00−8ю61293100 0.9 996727
12:00−6ю61292100 1.2 992815
15:00−4ююв61194100 2.8 988786
18:00−4ююв51096100 1.7 986661
21:00−6зсз61392100 3.4 987769
8 марта, пн
пн800:00−8зсз51292100 0.5 988649
03:00−9з51093100 1.0 990515
06:00−10зсз3795100 0.6 991308
09:00−9с4892100 1.2 993619
12:00−9с5887100 0.2 996766
15:00−8с5885100 0.4 1000924
18:00−10с4990100 0.1 1004694
21:00−13с3109299 0.2 1007594
9 марта, вт
вт900:00−17ссз379693 0.0 1009151
03:00−21ссз259886 0.0 1011100
06:00−24ссз259746 0.0 1013117
09:00−23ссз369333 0.0 1015297
12:00−18ссз358869 0.0 1016490
15:00−16ссз368684 0.0 1017685
18:00−20ссз3793100 0.0 1018178
21:00−23ссз379685 0.0 1020165
10 марта, ср
ср1000:00−26ссз239749 0.0 102258
03:00−28ссз239724 0.0 102349
06:00−29с23970 0.0 102447
09:00−26с24930 0.0 1025218
12:00−18ссз23785 0.0 1025473
15:00−15зсз24782 0.0 1025637
18:00−18з239328 0.0 102441
21:00−22зсз239647 0.0 102572